CZ-6A R/B, 67434

Orbit data source: Space-Track

CZ-6A R/B, 67434 is space debris in LEO originally from a launch on Tue, 13 Jan 2026 UTC launched from the Taiyaun Space Center, China (TSC). Debris objects in space refer to the collection of defunct objects orbiting the Earth. Examples of debris include non-operational satellites, rocket bodies, and fragments generated from explosions, collisions, or faulty payload assembly.

Loading next visibility...
Identifier
67434, 2026-006B
Orbit
LEO
Country
Flag of CNCN / PRC
Related business
Manufacturer
SAST
Mission
Spacecraft
Bus & Motor
CZ-6A STAGE 2, YF-115
Mass
~6,000 kg wet, ~6,000 kg dry
Launch date (UTC)
2026-01-13 (1 month ago)
Launch vehicle
Unknown
Launch site
Taiyaun Space Center, China (TSC)
Object type
Payload
Rocket body
Debris
Shape & HBR
Unknown shape, 3.6 m
Radar Cross Section
RCS unknown

Expand to show TLE details & history
Last TLE update: 7 hours ago

TLE from 7 hours ago
0 CZ-6A R/B
1 67434U 26006B   26048.81803620  .00001715  00000-0  20042-3 0  9991
2 67434 142.0458  21.4452 0202785 339.9463  19.3433 14.62341385  5161
Epoch: 2026-02-17T19:37Z
TLE epoch observation values (Epoch: 2026-02-17T19:37:58.327Z)
Latitude
-0.00002°
Longitude
-60.84039°
Altitude
550.061 km
Speed
7.661 km/s
True Right ascension
01h 25m 46s
True Declination
0° 00' 00"
Sunlit
Object was in daylight at epoch
Visualization orbit readout
Latitude
Unknown
Longitude
Unknown
Altitude
Unknown
Speed
Unknown
Apparent Right ascension
Unknown
Apparent Declination
Unknown
Sunlit
N/A
Visualization observer readout
Local Sidereal Time
05:18:53
Azimuth
Unknown
Elevation
Unknown
Doppler factor
Unknown
Orbital elements
Apogee altitude
831.625 km
Perigee altitude
545.031 km
Semi-major axis
7,066.465 km
Eccentricity
0.02028
Inclination
142.0458°
RAAN
21.4452°
Arg. of periapsis
339.9463°
True anomaly
20.1318°
Mean anomaly
19.3433°
Eccentric anomaly
19.73564°
Mean motion
3.65376 °/min
Orbital period
98.53 mins
BSTAR
0.00020042
Loading maneuver chart data...
Computing Atmospheric mass density...
Loading historical data...
Loading historical data...
Loading historical data...
Loading historical data...
Loading historical data...
Loading historical data...
Loading historical data...
Other satellites on launch #6 in the year 2026 (2026-01-13 UTC)

Documentation

Showing up to 5 results
|